EW2835 Weather Reports


Display with metric or nautical units.
time (UTC)temp
F
wind
direction
speed
MPH
gust
MPH
rain 1hr
in
rain 24hr
in
rain mn
in
humidity
%
barometer
mb
20260903081529 65 179 1.0 9.0 0.00 0.00 0.00 76 1017.0
20260903080025 64 211 1.0 6.0 0.00 0.00 0.00 79 1017.1
20260903074523 64 153 1.0 5.0 0.00 0.00 0.00 78 1017.3
20260903073031 63 183 1.0 7.0 0.00 0.00 0.00 80 1017.4
20260903071526 62 165 3.0 8.0 0.00 0.00 0.00 82 1017.5
20260903070014 60 177 1.0 4.0 0.00 0.00 0.00 90 1017.4
20260903064508 57 154 0.0 4.0 0.00 0.00 0.00 95 1017.5
20260903063006 56 180 1.0 4.0 0.00 0.00 0.00 95 1017.7
20260903061501 56 194 0.0 3.0 0.00 0.00 0.00 95 1017.7
20260903060104 55 121 0.0 2.0 0.00 0.00 0.00 95 1017.6
20260903054559 55 196 0.0 0.0 0.00 0.00 0.00 95 1017.8
20260903053054 54 217 0.0 1.0 0.00 0.00 0.00 95 1017.9
20260903051609 54 217 0.0 2.0 0.00 0.00 0.00 95 1018.0
20260903050055 53 320 0.0 0.0 0.00 0.00 0.00 95 1017.9
20260903044553 53 320 0.0 0.0 0.00 0.00 0.00 95 1017.8
20260903043145 53 320 0.0 0.0 0.00 0.00 0.00 95 1017.8
20260903041547 53 320 0.0 0.0 0.00 0.00 0.00 94 1017.7
20260903040047 53 320 0.0 0.0 0.00 0.00 0.00 94 1017.9
20260903034545 53 320 0.0 0.0 0.00 0.00 0.00 94 1017.8
20260903033044 53 320 0.0 0.0 0.00 0.00 0.00 94 1017.8
20260903031541 53 320 0.0 0.0 0.00 0.00 0.00 94 1018.2
20260903030041 53 320 0.0 0.0 0.00 0.00 0.00 94 1018.0
20260903024543 54 320 0.0 0.0 0.00 0.00 0.00 94 1018.0
20260903023039 54 320 0.0 0.0 0.00 0.00 0.00 94 1018.2
20260903021538 54 320 0.0 0.0 0.00 0.00 0.00 94 1018.1
20260903020041 54 320 0.0 0.0 0.00 0.00 0.00 94 1018.2
20260903014637 54 320 0.0 0.0 0.00 0.00 0.00 94 1018.3
20260903013039 54 320 0.0 0.0 0.00 0.00 0.00 94 1018.2
20260903011535 54 320 0.0 0.0 0.00 0.00 0.00 94 1018.3
20260903010040 54 320 0.0 0.0 0.00 0.00 0.00 94 1018.4
20260903004536 54 320 0.0 0.0 0.00 0.00 0.00 94 1018.4
20260903003034 53 320 0.0 0.0 0.00 0.00 0.00 94 1018.4
20260903001532 53 320 0.0 0.0 0.00 0.00 0.00 93 1018.4
20260903000032 53 320 0.0 0.0 0.00 0.00 0.00 93 1018.4
20260902234530 53 320 0.0 0.0 0.00 0.00 0.00 93 1018.4
20260902233029 54 320 0.0 0.0 0.00 0.00 0.00 92 1018.3
20260902231532 54 320 0.0 0.0 0.00 0.00 0.00 92 1018.3
20260902230027 54 320 0.0 0.0 0.00 0.00 0.00 92 1018.3
20260902224538 54 320 0.0 0.0 0.00 0.00 0.00 92 1018.2
20260902223023 54 320 0.0 0.0 0.00 0.00 0.00 91 1018.3
20260902221516 55 320 0.0 0.0 0.00 0.00 0.00 91 1018.5
20260902220010 55 320 0.0 0.0 0.00 0.00 0.00 91 1018.4
20260902214510 55 320 0.0 0.0 0.00 0.00 0.00 90 1018.4
20260902213009 56 320 0.0 0.0 0.00 0.00 0.00 90 1018.4
20260902211508 56 320 0.0 0.0 0.00 0.00 0.00 90 1018.6
20260902210008 56 320 0.0 0.0 0.00 0.00 0.00 89 1018.5
20260902204513 57 320 0.0 0.0 0.00 0.00 0.00 89 1018.3
20260902203008 57 320 0.0 0.0 0.00 0.00 0.00 88 1018.3
20260902201505 57 320 0.0 0.0 0.00 0.00 0.00 87 1018.2
20260902200006 58 320 0.0 0.0 0.00 0.00 0.00 87 1018.2
20260902194509 58 320 0.0 0.0 0.00 0.00 0.00 86 1018.3
20260902193005 59 320 0.0 0.0 0.00 0.00 0.00 85 1018.2
20260902191503 60 320 0.0 0.0 0.00 0.00 0.00 84 1018.2
20260902190004 60 320 0.0 0.0 0.00 0.00 0.00 82 1018.3
20260902184502 61 320 0.0 0.0 0.00 0.00 0.00 81 1018.4
20260902183109 62 320 0.0 0.0 0.00 0.00 0.00 79 1018.3
20260902181501 63 320 0.0 0.0 0.00 0.00 0.00 77 1018.2
20260902180122 64 320 0.0 1.0 0.00 0.00 0.00 75 1018.1
20260902174600 65 320 0.0 0.0 0.00 0.00 0.00 73 1018.0
20260902173100 67 320 0.0 0.0 0.00 0.00 0.00 70 1017.9
20260902171559 67 320 0.0 2.0 0.00 0.00 0.00 69 1018.0
20260902170058 68 308 1.0 3.0 0.00 0.00 0.00 69 1018.0
20260902164559 69 301 0.0 1.0 0.00 0.00 0.00 70 1018.0
20260902163101 69 287 1.0 8.0 0.00 0.00 0.00 63 1018.2
20260902160040 70 192 2.0 5.0 0.00 0.00 0.00 60 1018.0
20260902154539 70 203 1.0 4.0 0.00 0.00 0.00 61 1018.1
20260902153039 70 100 0.0 7.0 0.00 0.00 0.00 61 1018.1
20260902151537 70 142 0.0 3.0 0.00 0.00 0.00 60 1018.2
20260902150035 71 157 3.0 6.0 0.00 0.00 0.00 57 1018.2
20260902144535 71 308 1.0 4.0 0.00 0.00 0.00 61 1018.3
20260902143033 71 281 3.0 8.0 0.00 0.00 0.00 59 1018.4
20260902141536 71 203 1.0 4.0 0.00 0.00 0.00 61 1018.6
20260902140030 71 165 0.0 4.0 0.00 0.00 0.00 60 1018.6
20260902134529 71 270 0.0 9.0 0.00 0.00 0.00 61 1018.7
20260902133030 71 157 0.0 3.0 0.00 0.00 0.00 60 1018.8
20260902131529 71 280 1.0 5.0 0.00 0.00 0.00 60 1018.9
20260902130026 70 160 1.0 7.0 0.00 0.00 0.00 60 1019.0
20260902124526 70 291 1.0 6.0 0.00 0.00 0.00 60 1019.0
20260902123025 71 182 0.0 4.0 0.00 0.00 0.00 61 1019.0
20260902121524 73 277 1.0 8.0 0.00 0.00 0.00 57 1019.2
20260902120023 72 263 1.0 8.0 0.00 0.00 0.00 59 1019.2
20260902114526 71 360 1.0 7.0 0.00 0.00 0.00 62 1019.4
20260902113020 71 285 2.0 7.0 0.00 0.00 0.00 59 1019.4
20260902111520 71 284 1.0 10.0 0.00 0.00 0.00 59 1019.6
20260902110018 70 293 2.0 6.0 0.00 0.00 0.00 62 1019.7
20260902104528 69 294 1.0 6.0 0.00 0.00 0.00 62 1019.7
20260902103016 70 238 3.0 11.0 0.00 0.00 0.00 58 1019.7
20260902101514 72 195 4.0 9.0 0.00 0.00 0.00 60 1019.8
20260902100013 71 248 0.0 6.0 0.00 0.00 0.00 61 1019.9
20260902094517 68 337 0.0 6.0 0.00 0.00 0.00 66 1020.0
20260902093009 70 107 1.0 7.0 0.00 0.00 0.00 65 1020.0
20260902091506 68 279 0.0 3.0 0.00 0.00 0.00 69 1020.0
20260902090005 68 277 2.0 7.0 0.00 0.00 0.00 69 1020.0
20260902084504 68 256 1.0 5.0 0.00 0.00 0.00 70 1020.1
20260902083107 66 250 0.0 6.0 0.00 0.00 0.00 73 1020.1